Location: Mohawk View
(42.7837°N, 73.7885°W)
Time: 16:54:21
(UTC+00:00)

Cosmos 405 - Pass Details

Date: 17 June 2021
Orbit: 446 x 459 km, 81.3° (Epoch: 01 August)

Event Time Altitude Azimuth Distance (km) Brightness Sun altitude
Rises 03:11:31 0° 347° (NNW) 2,461 8.1 -19.6°
Reaches altitude 10° 03:13:36 10° 345° (NNW) 1,583 6.8 -19.7°
Maximum altitude 03:17:02 68° 263° (W) 486 3.0 -20.0°
Enters shadow 03:17:19 64° 227° (SW) 501 2.9 -20.0°
